Change the Weather History Date:

Friday, December 19, 2014

  Actual Average Record
Temperature  
Mean Temperature 34 °F -  
Max Temperature 37 °F 38 °F 56 °F (1990)
Min Temperature 30 °F 22 °F 7 °F (1960)
Degree Days  
Heating Degree Days 32    
Moisture  
Dew Point 23 °F    
Average Humidity 65    
Maximum Humidity 79    
Minimum Humidity 55    
Precipitation  
Precipitation 0.00 in - - ()
Sea Level Pressure  
Sea Level Pressure 30.00 in    
Wind  
Wind Speed 9 mph (NW)    
Max Wind Speed 17 mph    
Max Gust Speed 23 mph    
Visibility 8 miles    
Events      
Averages and records for this station are not official NWS values.
T = Trace of Precipitation, MM = Missing Value Source: NWS Daily Summary

Daily Weather History Graph

Daily Weather History Graph

Search for Another Location

Airport or City:

Trip Planner

Search our weather history database for the weather conditions in past years. The results will help you decide how hot, cold, wet, or windy it might be!

Date:

Astronomy

Dec. 19, 2014 Rise Set
Actual Time 7:09 AM EST 4:21 PM EST
Civil Twilight 6:38 AM EST 4:52 PM EST
Nautical Twilight 6:03 AM EST 5:27 PM EST
Astronomical Twilight 5:29 AM EST 6:00 PM EST
Moon 4:19 AM EST (12/19) 2:42 PM EST (12/19)
Length of Visible Light 10h 14m
Length of Day
9h 11m
Waning Crescent, 7% of the Moon is Illuminated
Dec 19
Waning Crescent
Dec 21
New
Dec 28
First Quarter
Jan 4
Full
Jan 13
Last Quarter

Hourly Weather History & Observations

Time (EST) Temp. Windchill Dew Point Humidity Pressure Visibility Wind Dir Wind Speed Gust Speed Precip Events Conditions
12:56 AM 34.0 °F 28.0 °F 26.1 °F 73% 29.91 in 9.0 mi WNW 6.9 mph - N/A   Partly Cloudy
1:56 AM 34.0 °F 29.8 °F 28.0 °F 79% 29.92 in 8.0 mi West 4.6 mph - N/A   Overcast
2:08 AM 34.0 °F 29.8 °F 27.0 °F 75% 29.92 in 8.0 mi West 4.6 mph - N/A   Overcast
2:24 AM 35.1 °F 30.1 °F 27.0 °F 72% 29.92 in 8.0 mi West 5.8 mph - N/A   Overcast
2:56 AM 35.1 °F 27.4 °F 27.0 °F 72% 29.92 in 8.0 mi NW 10.4 mph - N/A   Overcast
3:56 AM 35.1 °F 27.9 °F 26.1 °F 70% 29.91 in 8.0 mi NW 9.2 mph - N/A   Overcast
4:56 AM 34.0 °F 26.0 °F 26.1 °F 73% 29.92 in 8.0 mi NW 10.4 mph - N/A   Overcast
5:56 AM 34.0 °F 24.6 °F 25.0 °F 70% 29.94 in 9.0 mi NW 13.8 mph - N/A   Overcast
6:56 AM 34.0 °F 24.2 °F 21.9 °F 61% 29.96 in 10.0 mi NW 15.0 mph - N/A   Mostly Cloudy
7:56 AM 34.0 °F 25.5 °F 21.9 °F 61% 29.97 in 7.0 mi NW 11.5 mph - N/A   Mostly Cloudy
8:56 AM 35.1 °F 25.5 °F 21.9 °F 59% 29.98 in 7.0 mi WNW 15.0 mph 21.9 mph N/A   Overcast
9:56 AM 36.0 °F 27.1 °F 21.9 °F 57% 29.99 in 8.0 mi WNW 13.8 mph - N/A   Mostly Cloudy
10:56 AM 37.0 °F 29.3 °F 23.0 °F 57% 29.98 in 7.0 mi WNW 11.5 mph - N/A   Mostly Cloudy
11:56 AM 37.9 °F 28.5 °F 23.0 °F 55% 29.97 in 8.0 mi NNW 17.3 mph - N/A   Overcast
12:56 PM 37.0 °F 27.7 °F 23.0 °F 57% 29.96 in 7.0 mi North 16.1 mph - N/A   Overcast
1:56 PM 36.0 °F 27.1 °F 23.0 °F 59% 29.97 in 7.0 mi NNW 13.8 mph - N/A   Overcast
2:56 PM 35.1 °F 26.4 °F 21.9 °F 59% 29.99 in 7.0 mi NNW 12.7 mph 23.0 mph N/A   Overcast
3:56 PM 35.1 °F 26.4 °F 21.9 °F 59% 30.02 in 7.0 mi NNW 12.7 mph - N/A   Overcast
4:56 PM 34.0 °F 25.0 °F 21.9 °F 61% 30.04 in 9.0 mi NNW 12.7 mph - N/A   Overcast
5:56 PM 34.0 °F 26.0 °F 21.9 °F 61% 30.06 in 9.0 mi NNW 10.4 mph 18.4 mph N/A   Overcast
6:56 PM 33.1 °F 24.9 °F 21.9 °F 64% 30.09 in 9.0 mi NW 10.4 mph - N/A   Overcast
7:56 PM 32.0 °F 23.6 °F 21.9 °F 66% 30.11 in 8.0 mi NW 10.4 mph - N/A   Overcast
8:56 PM 30.9 °F 25.2 °F 21.9 °F 69% 30.12 in 8.0 mi NW 5.8 mph - N/A   Overcast
9:56 PM 30.9 °F 24.3 °F 21.9 °F 69% 30.12 in 8.0 mi NW 6.9 mph - N/A   Overcast
10:56 PM 30.9 °F 26.2 °F 21.9 °F 69% 30.14 in 8.0 mi NNW 4.6 mph - N/A   Overcast
11:56 PM 30.0 °F 25.2 °F 21.9 °F 72% 30.15 in 8.0 mi NNW 4.6 mph - N/A   Overcast